Time,TemperatureF,DewpointF,PressureIn,WindDirection,WindDirectionDegrees,WindSpeedMPH,WindSpeedGustMPH,Humidity,HourlyPrecipIn,Conditions,Clouds,dailyrainin,SoftwareType,DateUTC
2013-12-03 00:01:00,61.5,60.3,29.93,NE,42,0.0,0.0,96,0.00,,,0.00,Wunderground v.1.15,2013-12-03 05:01:00,
2013-12-03 00:02:00,61.5,60.3,29.93,NE,43,0.0,0.0,96,0.00,,,0.00,Wunderground v.1.15,2013-12-03 05:02:00,
2013-12-03 00:03:00,61.4,60.2,29.93,NE,43,0.0,0.0,96,0.00,,,0.00,Wunderground v.1.15,2013-12-03 05:03:00,
2013-12-03 00:04:00,61.4,60.2,29.93,NE,42,0.0,0.0,96,0.00,,,0.00,Wunderground v.1.15,2013-12-03 05:04:00,
2013-12-03 00:10:00,61.1,59.7,29.93,NE,42,0.0,0.0,95,0.00,,,0.00,Wunderground v.1.15,2013-12-03 05:10:00,
2013-12-03 00:11:00,61.1,60.0,29.93,NE,43,0.0,0.0,96,0.00,,,0.00,Wunderground v.1.15,2013-12-03 05:11:00,
2013-12-03 00:16:00,61.1,60.0,29.93,NE,43,0.0,0.0,96,0.00,,,0.00,Wunderground v.1.15,2013-12-03 05:16:00,
2013-12-03 00:22:00,61.1,60.0,29.93,NE,42,0.0,0.0,96,0.00,,,0.00,Wunderground v.1.15,2013-12-03 05:22:00,
2013-12-03 00:27:00,61.1,60.0,29.93,NE,43,0.0,0.0,96,0.00,,,0.00,Wunderground v.1.15,2013-12-03 05:27:00,
2013-12-03 00:28:00,61.2,60.1,29.93,NE,42,0.0,0.0,96,0.00,,,0.00,Wunderground v.1.15,2013-12-03 05:28:00,
2013-12-03 00:34:00,61.1,60.0,29.93,NE,42,0.0,0.0,96,0.00,,,0.00,Wunderground v.1.15,2013-12-03 05:34:00,
2013-12-03 00:40:00,61.1,60.0,29.93,NE,42,0.0,0.0,96,0.00,,,0.00,Wunderground v.1.15,2013-12-03 05:40:00,
2013-12-03 00:45:00,61.0,59.9,29.93,NE,42,0.0,0.0,96,0.00,,,0.00,Wunderground v.1.15,2013-12-03 05:45:00,
2013-12-03 00:51:00,61.0,59.9,29.93,NE,42,0.0,0.0,96,0.00,,,0.00,Wunderground v.1.15,2013-12-03 05:51:00,
2013-12-03 00:57:00,60.9,59.8,29.93,NE,42,0.0,0.0,96,0.00,,,0.00,Wunderground v.1.15,2013-12-03 05:57:00,
2013-12-03 01:03:00,61.0,60.1,29.93,NE,42,0.0,0.0,97,0.00,,,0.00,Wunderground v.1.15,2013-12-03 06:03:00,
2013-12-03 01:08:00,61.3,60.4,29.93,NE,43,0.0,0.0,97,0.00,,,0.00,Wunderground v.1.15,2013-12-03 06:08:00,
2013-12-03 01:13:00,61.2,60.1,29.93,NE,43,0.0,0.0,96,0.00,,,0.00,Wunderground v.1.15,2013-12-03 06:13:00,
2013-12-03 01:19:00,61.4,60.5,29.93,NE,42,0.0,0.0,97,0.00,,,0.00,Wunderground v.1.15,2013-12-03 06:19:00,
2013-12-03 01:24:00,61.5,60.6,29.93,NE,42,0.0,0.0,97,0.00,,,0.00,Wunderground v.1.15,2013-12-03 06:24:00,
2013-12-03 01:30:00,61.3,60.2,29.93,NE,42,0.0,0.0,96,0.00,,,0.00,Wunderground v.1.15,2013-12-03 06:30:00,
2013-12-03 01:35:00,61.1,60.0,29.93,NE,42,0.0,0.0,96,0.00,,,0.00,Wunderground v.1.15,2013-12-03 06:35:00,
2013-12-03 01:40:00,60.8,59.7,29.93,NE,43,0.0,0.0,96,0.00,,,0.00,Wunderground v.1.15,2013-12-03 06:40:00,
2013-12-03 01:45:00,60.8,59.7,29.93,NE,42,0.0,0.0,96,0.00,,,0.00,Wunderground v.1.15,2013-12-03 06:45:00,
2013-12-03 01:51:00,60.9,60.0,29.93,NE,42,0.0,0.0,97,0.00,,,0.00,Wunderground v.1.15,2013-12-03 06:51:00,
2013-12-03 01:56:00,61.0,60.1,29.93,NE,42,0.0,0.0,97,0.00,,,0.00,Wunderground v.1.15,2013-12-03 06:56:00,
2013-12-03 02:01:00,61.0,60.1,29.93,NE,42,0.0,0.0,97,0.00,,,0.00,Wunderground v.1.15,2013-12-03 07:01:00,
2013-12-03 02:06:00,61.2,60.3,29.93,NE,43,0.0,0.0,97,0.00,,,0.00,Wunderground v.1.15,2013-12-03 07:06:00,
2013-12-03 02:11:00,61.6,60.7,29.93,NE,42,0.0,0.0,97,0.00,,,0.00,Wunderground v.1.15,2013-12-03 07:11:00,
2013-12-03 02:16:00,61.9,61.0,29.93,NE,42,0.0,0.0,97,0.00,,,0.00,Wunderground v.1.15,2013-12-03 07:16:00,
2013-12-03 02:21:00,61.9,61.0,29.93,NE,43,0.0,0.0,97,0.00,,,0.00,Wunderground v.1.15,2013-12-03 07:21:00,
2013-12-03 02:26:00,61.9,61.0,29.93,NE,42,0.0,0.0,97,0.00,,,0.00,Wunderground v.1.15,2013-12-03 07:26:00,
2013-12-03 02:31:00,61.9,61.0,29.93,NE,42,0.0,0.0,97,0.00,,,0.00,Wunderground v.1.15,2013-12-03 07:31:00,
2013-12-03 02:36:00,61.8,60.9,29.93,NE,43,0.0,0.0,97,0.00,,,0.00,Wunderground v.1.15,2013-12-03 07:36:00,
2013-12-03 02:41:00,61.7,60.5,29.93,NE,42,0.0,0.0,96,0.00,,,0.00,Wunderground v.1.15,2013-12-03 07:41:00,
2013-12-03 02:46:00,61.5,60.3,29.93,NE,43,0.0,0.0,96,0.00,,,0.00,Wunderground v.1.15,2013-12-03 07:46:00,
2013-12-03 02:51:00,61.5,60.6,29.93,NE,42,0.0,0.0,97,0.00,,,0.00,Wunderground v.1.15,2013-12-03 07:51:00,
2013-12-03 02:56:00,61.6,60.7,29.93,NE,43,0.0,0.0,97,0.00,,,0.00,Wunderground v.1.15,2013-12-03 07:56:00,
2013-12-03 03:01:00,61.6,60.7,29.93,NE,43,0.0,0.0,97,0.00,,,0.00,Wunderground v.1.15,2013-12-03 08:01:00,
2013-12-03 03:06:00,62.0,61.1,29.93,NE,42,0.0,0.0,97,0.00,,,0.00,Wunderground v.1.15,2013-12-03 08:06:00,
2013-12-03 03:11:00,62.1,61.2,29.93,NE,43,0.0,0.0,97,0.00,,,0.00,Wunderground v.1.15,2013-12-03 08:11:00,
2013-12-03 03:17:00,62.4,61.5,29.93,NE,43,0.0,0.0,97,0.00,,,0.00,Wunderground v.1.15,2013-12-03 08:17:00,
2013-12-03 03:22:00,62.5,61.6,29.93,NE,43,0.0,0.0,97,0.00,,,0.00,Wunderground v.1.15,2013-12-03 08:22:00,
2013-12-03 03:27:00,62.4,61.5,29.93,NE,43,0.0,0.0,97,0.00,,,0.00,Wunderground v.1.15,2013-12-03 08:27:00,
2013-12-03 03:32:00,62.4,61.5,29.93,NE,42,0.0,0.0,97,0.00,,,0.00,Wunderground v.1.15,2013-12-03 08:32:00,
2013-12-03 03:37:00,62.6,61.7,29.94,NE,43,0.0,0.0,97,0.00,,,0.00,Wunderground v.1.15,2013-12-03 08:37:00,
2013-12-03 03:42:00,62.7,61.8,29.94,NE,43,0.0,0.0,97,0.00,,,0.00,Wunderground v.1.15,2013-12-03 08:42:00,
2013-12-03 03:47:00,62.8,61.9,29.94,NE,43,0.0,0.0,97,0.00,,,0.00,Wunderground v.1.15,2013-12-03 08:47:00,
2013-12-03 03:52:00,62.9,62.0,29.94,NE,42,0.0,0.0,97,0.00,,,0.00,Wunderground v.1.15,2013-12-03 08:52:00,
2013-12-03 03:57:00,63.1,62.2,29.94,NE,43,0.0,0.0,97,0.00,,,0.00,Wunderground v.1.15,2013-12-03 08:57:00,
2013-12-03 04:02:00,63.2,62.3,29.94,NE,42,0.0,0.0,97,0.00,,,0.00,Wunderground v.1.15,2013-12-03 09:02:00,
2013-12-03 04:07:00,63.5,62.6,29.94,NE,43,0.0,0.0,97,0.00,,,0.00,Wunderground v.1.15,2013-12-03 09:07:00,
2013-12-03 04:12:00,63.5,62.6,29.94,NE,43,0.0,0.0,97,0.00,,,0.00,Wunderground v.1.15,2013-12-03 09:12:00,
2013-12-03 04:17:00,63.5,62.6,29.94,NE,42,0.0,0.0,97,0.00,,,0.00,Wunderground v.1.15,2013-12-03 09:17:00,
2013-12-03 04:22:00,63.4,62.5,29.94,NE,42,0.0,0.0,97,0.00,,,0.00,Wunderground v.1.15,2013-12-03 09:22:00,
2013-12-03 04:27:00,63.3,62.4,29.94,NE,42,0.0,0.0,97,0.00,,,0.00,Wunderground v.1.15,2013-12-03 09:27:00,
2013-12-03 04:32:00,63.2,62.3,29.94,NE,42,0.0,0.0,97,0.00,,,0.00,Wunderground v.1.15,2013-12-03 09:32:00,
2013-12-03 04:37:00,63.0,62.1,29.94,NE,42,0.0,0.0,97,0.00,,,0.00,Wunderground v.1.15,2013-12-03 09:37:00,
2013-12-03 04:42:00,62.9,62.0,29.94,NE,43,0.0,0.0,97,0.00,,,0.00,Wunderground v.1.15,2013-12-03 09:42:00,
2013-12-03 04:47:00,63.1,62.2,29.94,NE,42,0.0,0.0,97,0.00,,,0.00,Wunderground v.1.15,2013-12-03 09:47:00,
2013-12-03 04:52:00,63.2,62.3,29.94,NE,43,0.0,0.0,97,0.00,,,0.00,Wunderground v.1.15,2013-12-03 09:52:00,
2013-12-03 04:57:00,63.3,62.4,29.94,NE,43,0.0,0.0,97,0.00,,,0.00,Wunderground v.1.15,2013-12-03 09:57:00,
2013-12-03 05:02:00,63.4,62.5,29.94,NE,43,0.0,0.0,97,0.00,,,0.00,Wunderground v.1.15,2013-12-03 10:02:00,
2013-12-03 05:07:00,63.5,62.6,29.94,NE,42,0.0,0.0,97,0.00,,,0.00,Wunderground v.1.15,2013-12-03 10:07:00,
2013-12-03 05:12:00,63.6,62.7,29.94,NE,42,0.0,0.0,97,0.00,,,0.00,Wunderground v.1.15,2013-12-03 10:12:00,
2013-12-03 05:17:00,63.6,62.7,29.94,NE,42,0.0,0.0,97,0.00,,,0.00,Wunderground v.1.15,2013-12-03 10:17:00,
2013-12-03 05:22:00,63.7,62.8,29.94,NE,43,0.0,0.0,97,0.00,,,0.00,Wunderground v.1.15,2013-12-03 10:22:00,
2013-12-03 05:27:00,63.8,62.9,29.94,NE,43,0.0,0.0,97,0.00,,,0.00,Wunderground v.1.15,2013-12-03 10:27:00,
2013-12-03 05:32:00,63.9,63.0,29.94,NE,43,0.0,0.0,97,0.00,,,0.00,Wunderground v.1.15,2013-12-03 10:32:00,
2013-12-03 05:37:00,64.0,63.1,29.94,NE,43,0.0,0.0,97,0.00,,,0.00,Wunderground v.1.15,2013-12-03 10:37:00,
2013-12-03 05:42:00,64.1,63.2,29.94,NE,42,0.0,0.0,97,0.00,,,0.00,Wunderground v.1.15,2013-12-03 10:42:00,
2013-12-03 05:47:00,64.1,63.2,29.94,NE,42,0.0,0.0,97,0.00,,,0.00,Wunderground v.1.15,2013-12-03 10:47:00,
2013-12-03 05:52:00,64.1,63.2,29.95,NE,42,0.0,0.0,97,0.00,,,0.00,Wunderground v.1.15,2013-12-03 10:52:00,
2013-12-03 05:57:00,64.1,63.2,29.95,NE,42,0.0,0.0,97,0.00,,,0.00,Wunderground v.1.15,2013-12-03 10:57:00,
2013-12-03 06:02:00,64.1,63.2,29.95,NE,43,0.0,0.0,97,0.00,,,0.00,Wunderground v.1.15,2013-12-03 11:02:00,
2013-12-03 06:07:00,64.1,63.2,29.96,NE,42,0.0,0.0,97,0.00,,,0.00,Wunderground v.1.15,2013-12-03 11:07:00,
2013-12-03 06:12:00,64.1,63.2,29.96,NE,43,0.0,0.0,97,0.00,,,0.00,Wunderground v.1.15,2013-12-03 11:12:00,
2013-12-03 06:17:00,64.0,63.1,29.96,NE,42,0.0,0.0,97,0.00,,,0.00,Wunderground v.1.15,2013-12-03 11:17:00,
2013-12-03 06:22:00,64.0,63.1,29.96,NE,42,0.0,0.0,97,0.00,,,0.00,Wunderground v.1.15,2013-12-03 11:22:00,
2013-12-03 06:27:00,64.0,63.1,29.96,NE,42,0.0,0.0,97,0.00,,,0.00,Wunderground v.1.15,2013-12-03 11:27:00,
2013-12-03 06:32:00,64.0,63.1,29.96,NE,42,0.0,0.0,97,0.00,,,0.00,Wunderground v.1.15,2013-12-03 11:32:00,
2013-12-03 06:37:00,64.1,63.2,29.96,NE,42,0.0,0.0,97,0.00,,,0.00,Wunderground v.1.15,2013-12-03 11:37:00,
2013-12-03 06:42:00,64.2,63.3,29.96,NE,42,0.0,0.0,97,0.00,,,0.00,Wunderground v.1.15,2013-12-03 11:42:00,
2013-12-03 06:47:00,64.3,63.4,29.96,NE,42,0.0,0.0,97,0.00,,,0.00,Wunderground v.1.15,2013-12-03 11:47:00,
2013-12-03 06:52:00,64.3,63.4,29.97,NE,42,0.0,0.0,97,0.00,,,0.00,Wunderground v.1.15,2013-12-03 11:52:00,
2013-12-03 06:57:00,64.5,63.6,29.97,NE,43,0.0,0.0,97,0.00,,,0.00,Wunderground v.1.15,2013-12-03 11:57:00,
2013-12-03 07:02:00,64.6,63.7,29.97,NE,42,0.0,0.0,97,0.00,,,0.00,Wunderground v.1.15,2013-12-03 12:02:00,
2013-12-03 07:07:00,64.6,63.7,29.98,NE,43,0.0,0.0,97,0.00,,,0.00,Wunderground v.1.15,2013-12-03 12:07:00,
2013-12-03 07:12:00,64.7,63.8,29.98,NE,42,0.0,0.0,97,0.00,,,0.00,Wunderground v.1.15,2013-12-03 12:12:00,
2013-12-03 07:18:00,64.8,63.9,29.98,NE,42,0.0,0.0,97,0.00,,,0.00,Wunderground v.1.15,2013-12-03 12:18:00,
2013-12-03 07:23:00,65.0,64.1,29.98,NE,42,0.0,0.0,97,0.00,,,0.00,Wunderground v.1.15,2013-12-03 12:23:00,
2013-12-03 07:28:00,65.0,64.1,29.98,NE,42,0.0,0.0,97,0.00,,,0.00,Wunderground v.1.15,2013-12-03 12:28:00,
2013-12-03 07:33:00,65.0,64.1,29.98,NE,42,0.0,0.0,97,0.00,,,0.00,Wunderground v.1.15,2013-12-03 12:33:00,
2013-12-03 07:38:00,65.1,64.2,29.98,NE,43,0.0,0.0,97,0.00,,,0.00,Wunderground v.1.15,2013-12-03 12:38:00,
2013-12-03 07:43:00,65.2,64.3,29.98,NE,42,0.0,0.0,97,0.00,,,0.00,Wunderground v.1.15,2013-12-03 12:43:00,
2013-12-03 07:48:00,65.3,64.4,29.98,NE,42,0.0,0.0,97,0.00,,,0.00,Wunderground v.1.15,2013-12-03 12:48:00,
2013-12-03 07:53:00,65.4,64.5,29.98,NE,43,0.0,0.0,97,0.00,,,0.00,Wunderground v.1.15,2013-12-03 12:53:00,
2013-12-03 07:58:00,65.4,64.5,29.98,NE,42,0.0,0.0,97,0.00,,,0.00,Wunderground v.1.15,2013-12-03 12:58:00,
2013-12-03 08:03:00,65.5,64.6,29.98,NE,43,0.0,0.0,97,0.00,,,0.00,Wunderground v.1.15,2013-12-03 13:03:00,
2013-12-03 08:08:00,66.1,65.5,29.99,NE,42,0.0,0.0,98,0.00,,,0.00,Wunderground v.1.15,2013-12-03 13:08:00,
2013-12-03 08:13:00,66.7,66.1,29.99,NE,42,0.0,0.0,98,0.00,,,0.00,Wunderground v.1.15,2013-12-03 13:13:00,
2013-12-03 08:18:00,67.4,66.8,29.99,NE,43,0.0,0.0,98,0.00,,,0.00,Wunderground v.1.15,2013-12-03 13:18:00,
2013-12-03 08:23:00,68.3,67.7,29.99,NE,42,0.0,0.0,98,0.00,,,0.00,Wunderground v.1.15,2013-12-03 13:23:00,
2013-12-03 08:28:00,68.0,67.1,29.99,NE,42,0.0,0.0,97,0.00,,,0.00,Wunderground v.1.15,2013-12-03 13:28:00,
2013-12-03 08:33:00,67.3,65.8,29.99,NE,42,0.0,0.0,95,0.00,,,0.00,Wunderground v.1.15,2013-12-03 13:33:00,
2013-12-03 08:38:00,66.8,65.0,30.00,NE,43,0.0,0.0,94,0.00,,,0.00,Wunderground v.1.15,2013-12-03 13:38:00,
2013-12-03 08:43:00,66.7,65.2,30.00,NE,42,0.0,1.0,95,0.00,,,0.00,Wunderground v.1.15,2013-12-03 13:43:00,
2013-12-03 08:48:00,67.1,65.6,30.00,NNE,17,0.0,1.0,95,0.00,,,0.00,Wunderground v.1.15,2013-12-03 13:48:00,
2013-12-03 08:53:00,67.3,65.8,30.01,NNE,19,0.0,0.0,95,0.00,,,0.00,Wunderground v.1.15,2013-12-03 13:53:00,
2013-12-03 08:58:00,67.6,65.8,30.01,NNE,19,0.0,0.0,94,0.00,,,0.00,Wunderground v.1.15,2013-12-03 13:58:00,
2013-12-03 09:03:00,67.8,65.7,30.01,NNE,19,0.0,0.0,93,0.00,,,0.00,Wunderground v.1.15,2013-12-03 14:03:00,
2013-12-03 09:08:00,68.4,65.4,30.01,NNE,22,0.0,1.0,90,0.00,,,0.00,Wunderground v.1.15,2013-12-03 14:08:00,
2013-12-03 09:13:00,68.8,64.8,30.01,NNE,23,0.0,1.0,87,0.00,,,0.00,Wunderground v.1.15,2013-12-03 14:13:00,
2013-12-03 09:18:00,69.8,64.4,30.01,NNE,30,0.0,1.0,83,0.00,,,0.00,Wunderground v.1.15,2013-12-03 14:18:00,
2013-12-03 09:23:00,70.6,64.5,30.01,NNE,30,0.0,0.0,81,0.00,,,0.00,Wunderground v.1.15,2013-12-03 14:23:00,
2013-12-03 09:28:00,71.7,64.5,30.01,NNE,28,0.0,0.0,78,0.00,,,0.00,Wunderground v.1.15,2013-12-03 14:28:00,
2013-12-03 09:33:00,72.6,63.4,30.01,SSE,148,1.0,1.0,73,0.00,,,0.00,Wunderground v.1.15,2013-12-03 14:33:00,
2013-12-03 09:38:00,73.2,63.6,30.02,SSE,148,0.0,1.0,72,0.00,,,0.00,Wunderground v.1.15,2013-12-03 14:38:00,
2013-12-03 09:43:00,73.6,63.2,30.02,SSE,159,2.0,2.0,70,0.00,,,0.00,Wunderground v.1.15,2013-12-03 14:43:00,
2013-12-03 09:48:00,74.0,61.5,30.02,ESE,120,1.0,2.0,65,0.00,,,0.00,Wunderground v.1.15,2013-12-03 14:48:00,
2013-12-03 09:53:00,74.4,62.7,30.02,SSE,161,0.0,1.0,67,0.00,,,0.00,Wunderground v.1.15,2013-12-03 14:53:00,
2013-12-03 09:58:00,74.6,61.6,30.02,SSE,156,1.0,3.0,64,0.00,,,0.00,Wunderground v.1.15,2013-12-03 14:58:00,
2013-12-03 10:03:00,75.1,63.0,30.02,SSE,161,0.0,1.0,66,0.00,,,0.00,Wunderground v.1.15,2013-12-03 15:03:00,
2013-12-03 10:08:00,75.3,60.0,30.02,ESE,121,0.0,3.0,59,0.00,,,0.00,Wunderground v.1.15,2013-12-03 15:08:00,
2013-12-03 10:13:00,75.5,61.1,30.02,SSE,148,1.0,2.0,61,0.00,,,0.00,Wunderground v.1.15,2013-12-03 15:13:00,
2013-12-03 10:18:00,75.8,62.3,30.02,SE,126,1.0,3.0,63,0.00,,,0.00,Wunderground v.1.15,2013-12-03 15:18:00,
2013-12-03 10:23:00,76.0,62.9,30.01,SSE,149,1.0,3.0,64,0.00,,,0.00,Wunderground v.1.15,2013-12-03 15:23:00,
2013-12-03 10:28:00,76.2,62.2,30.01,SE,132,3.0,4.0,62,0.00,,,0.00,Wunderground v.1.15,2013-12-03 15:28:00,
2013-12-03 10:33:00,76.3,61.9,30.01,South,171,0.0,4.0,61,0.00,,,0.00,Wunderground v.1.15,2013-12-03 15:33:00,
2013-12-03 10:38:00,76.7,61.3,30.01,ESE,111,0.0,4.0,59,0.00,,,0.00,Wunderground v.1.15,2013-12-03 15:38:00,
2013-12-03 10:43:00,76.7,61.8,30.01,ESE,121,1.0,4.0,60,0.00,,,0.00,Wunderground v.1.15,2013-12-03 15:43:00,
2013-12-03 10:48:00,77.0,62.0,30.01,SSE,161,2.0,4.0,60,0.00,,,0.00,Wunderground v.1.15,2013-12-03 15:48:00,
2013-12-03 10:53:00,77.0,62.0,30.01,South,169,0.0,5.0,60,0.00,,,0.00,Wunderground v.1.15,2013-12-03 15:53:00,
2013-12-03 10:58:00,77.4,61.9,30.01,SE,145,2.0,5.0,59,0.00,,,0.00,Wunderground v.1.15,2013-12-03 15:58:00,
2013-12-03 11:03:00,77.3,62.8,30.01,South,178,4.0,4.0,61,0.00,,,0.00,Wunderground v.1.15,2013-12-03 16:03:00,
2013-12-03 11:08:00,77.4,62.4,30.00,SE,141,4.0,4.0,60,0.00,,,0.00,Wunderground v.1.15,2013-12-03 16:08:00,
2013-12-03 11:13:00,77.9,61.9,30.00,SSE,167,2.0,5.0,58,0.00,,,0.00,Wunderground v.1.15,2013-12-03 16:13:00,
2013-12-03 11:18:00,77.5,62.0,30.00,SSE,165,4.0,7.0,59,0.00,,,0.00,Wunderground v.1.15,2013-12-03 16:18:00,
2013-12-03 11:23:00,77.3,61.9,29.99,SE,142,3.0,7.0,59,0.00,,,0.00,Wunderground v.1.15,2013-12-03 16:23:00,
2013-12-03 11:28:00,77.2,62.2,29.99,SW,214,1.0,7.0,60,0.00,,,0.00,Wunderground v.1.15,2013-12-03 16:28:00,
2013-12-03 11:34:00,77.4,61.9,29.99,SE,133,7.0,10.0,59,0.00,,,0.00,Wunderground v.1.15,2013-12-03 16:34:00,
2013-12-03 11:39:00,77.3,60.9,29.99,SE,137,0.0,10.0,57,0.00,,,0.00,Wunderground v.1.15,2013-12-03 16:39:00,
2013-12-03 11:44:00,77.3,61.9,29.99,SW,215,1.0,3.0,59,0.00,,,0.00,Wunderground v.1.15,2013-12-03 16:44:00,
2013-12-03 11:49:00,77.8,62.3,29.99,SSW,211,2.0,4.0,59,0.00,,,0.00,Wunderground v.1.15,2013-12-03 16:49:00,
2013-12-03 11:54:00,78.1,63.6,29.99,SSE,152,2.0,4.0,61,0.00,,,0.00,Wunderground v.1.15,2013-12-03 16:54:00,
2013-12-03 11:59:00,78.1,61.6,29.99,SSE,156,3.0,4.0,57,0.00,,,0.00,Wunderground v.1.15,2013-12-03 16:59:00,
2013-12-03 12:04:00,78.2,62.2,29.99,SSW,195,0.0,6.0,58,0.00,,,0.00,Wunderground v.1.15,2013-12-03 17:04:00,
2013-12-03 12:09:00,78.0,61.0,29.98,SSE,157,4.0,6.0,56,0.00,,,0.00,Wunderground v.1.15,2013-12-03 17:09:00,
2013-12-03 12:14:00,78.3,62.8,29.98,SSE,152,4.0,5.0,59,0.00,,,0.00,Wunderground v.1.15,2013-12-03 17:14:00,
2013-12-03 12:19:00,78.0,62.0,29.98,SE,143,3.0,7.0,58,0.00,,,0.00,Wunderground v.1.15,2013-12-03 17:19:00,
2013-12-03 12:24:00,78.4,62.4,29.98,SSW,209,4.0,4.0,58,0.00,,,0.00,Wunderground v.1.15,2013-12-03 17:24:00,
2013-12-03 12:29:00,78.1,61.6,29.98,SE,142,2.0,9.0,57,0.00,,,0.00,Wunderground v.1.15,2013-12-03 17:29:00,
2013-12-03 12:34:00,78.1,62.6,29.98,SSE,163,1.0,4.0,59,0.00,,,0.00,Wunderground v.1.15,2013-12-03 17:34:00,
2013-12-03 12:39:00,78.4,62.4,29.97,SE,145,2.0,5.0,58,0.00,,,0.00,Wunderground v.1.15,2013-12-03 17:39:00,
2013-12-03 12:44:00,78.7,62.2,29.97,SSE,161,0.0,4.0,57,0.00,,,0.00,Wunderground v.1.15,2013-12-03 17:44:00,
2013-12-03 12:49:00,78.9,62.4,29.97,SE,139,0.0,5.0,57,0.00,,,0.00,Wunderground v.1.15,2013-12-03 17:49:00,
2013-12-03 12:54:00,79.0,61.5,29.96,SSE,148,3.0,3.0,55,0.00,,,0.00,Wunderground v.1.15,2013-12-03 17:54:00,
2013-12-03 12:59:00,78.6,61.1,29.96,SE,141,1.0,3.0,55,0.00,,,0.00,Wunderground v.1.15,2013-12-03 17:59:00,
2013-12-03 13:04:00,78.5,61.0,29.96,SSE,155,3.0,6.0,55,0.00,,,0.00,Wunderground v.1.15,2013-12-03 18:04:00,
2013-12-03 13:09:00,78.5,61.5,29.96,SSW,198,3.0,3.0,56,0.00,,,0.00,Wunderground v.1.15,2013-12-03 18:09:00,
2013-12-03 13:14:00,78.3,60.8,29.96,SE,144,1.0,6.0,55,0.00,,,0.00,Wunderground v.1.15,2013-12-03 18:14:00,
2013-12-03 13:19:00,78.1,61.1,29.96,SSE,149,3.0,6.0,56,0.00,,,0.00,Wunderground v.1.15,2013-12-03 18:19:00,
2013-12-03 13:24:00,78.1,62.1,29.96,SE,134,0.0,4.0,58,0.00,,,0.00,Wunderground v.1.15,2013-12-03 18:24:00,
2013-12-03 13:29:00,78.5,62.5,29.96,SSW,201,3.0,3.0,58,0.00,,,0.00,Wunderground v.1.15,2013-12-03 18:29:00,
2013-12-03 13:35:00,79.2,63.1,29.96,SE,138,4.0,4.0,58,0.00,,,0.00,Wunderground v.1.15,2013-12-03 18:35:00,
2013-12-03 13:40:00,79.2,63.1,29.96,SE,136,3.0,3.0,58,0.00,,,0.00,Wunderground v.1.15,2013-12-03 18:40:00,
2013-12-03 13:44:00,79.0,62.0,29.96,SE,124,1.0,5.0,56,0.00,,,0.00,Wunderground v.1.15,2013-12-03 18:44:00,
2013-12-03 13:50:00,78.7,62.2,29.96,SE,135,3.0,3.0,57,0.00,,,0.00,Wunderground v.1.15,2013-12-03 18:50:00,
2013-12-03 13:55:00,78.5,61.0,29.96,SE,138,0.0,3.0,55,0.00,,,0.00,Wunderground v.1.15,2013-12-03 18:55:00,
2013-12-03 14:00:00,78.7,62.2,29.96,SE,134,0.0,1.0,57,0.00,,,0.00,Wunderground v.1.15,2013-12-03 19:00:00,
2013-12-03 14:05:00,78.8,62.3,29.96,SSE,159,0.0,1.0,57,0.00,,,0.00,Wunderground v.1.15,2013-12-03 19:05:00,
2013-12-03 14:10:00,79.0,63.4,29.96,West,261,0.0,0.0,59,0.00,,,0.00,Wunderground v.1.15,2013-12-03 19:10:00,
2013-12-03 14:15:00,79.0,63.0,29.96,SE,127,1.0,1.0,58,0.00,,,0.00,Wunderground v.1.15,2013-12-03 19:15:00,
2013-12-03 14:20:00,78.9,62.4,29.96,SE,125,0.0,0.0,57,0.00,,,0.00,Wunderground v.1.15,2013-12-03 19:20:00,
2013-12-03 14:25:00,78.7,61.7,29.95,SE,136,0.0,1.0,56,0.00,,,0.00,Wunderground v.1.15,2013-12-03 19:25:00,
2013-12-03 14:30:00,78.6,64.0,29.95,SSE,161,1.0,1.0,61,0.00,,,0.00,Wunderground v.1.15,2013-12-03 19:30:00,
2013-12-03 14:35:00,78.5,64.9,29.95,ESE,114,2.0,2.0,63,0.00,,,0.00,Wunderground v.1.15,2013-12-03 19:35:00,
2013-12-03 14:40:00,78.2,65.0,29.95,SE,140,2.0,2.0,64,0.00,,,0.00,Wunderground v.1.15,2013-12-03 19:40:00,
2013-12-03 14:45:00,78.0,64.4,29.95,ESE,115,2.0,4.0,63,0.00,,,0.00,Wunderground v.1.15,2013-12-03 19:45:00,
2013-12-03 14:50:00,78.0,64.8,29.95,SSE,167,3.0,3.0,64,0.00,,,0.00,Wunderground v.1.15,2013-12-03 19:50:00,
2013-12-03 14:55:00,77.8,64.2,29.95,SSE,153,3.0,5.0,63,0.00,,,0.00,Wunderground v.1.15,2013-12-03 19:55:00,
2013-12-03 15:00:00,77.7,64.1,29.95,SSE,163,0.0,3.0,63,0.00,,,0.00,Wunderground v.1.15,2013-12-03 20:00:00,
2013-12-03 15:05:00,77.6,65.8,29.95,SSE,153,0.0,4.0,67,0.00,,,0.00,Wunderground v.1.15,2013-12-03 20:05:00,
2013-12-03 15:11:00,77.4,64.7,29.95,SSE,147,1.0,3.0,65,0.00,,,0.00,Wunderground v.1.15,2013-12-03 20:11:00,
2013-12-03 15:16:00,77.4,65.1,29.95,SE,128,4.0,4.0,66,0.00,,,0.00,Wunderground v.1.15,2013-12-03 20:16:00,
2013-12-03 15:21:00,77.3,65.5,29.95,ESE,123,0.0,3.0,67,0.00,,,0.00,Wunderground v.1.15,2013-12-03 20:21:00,
2013-12-03 15:26:00,77.3,65.5,29.95,SSE,161,2.0,4.0,67,0.00,,,0.00,Wunderground v.1.15,2013-12-03 20:26:00,
2013-12-03 15:31:00,77.3,65.5,29.95,SE,132,1.0,2.0,67,0.00,,,0.00,Wunderground v.1.15,2013-12-03 20:31:00,
2013-12-03 15:36:00,77.3,65.5,29.95,SSE,156,2.0,6.0,67,0.00,,,0.00,Wunderground v.1.15,2013-12-03 20:36:00,
2013-12-03 15:41:00,77.3,65.5,29.95,SSE,149,2.0,4.0,67,0.00,,,0.00,Wunderground v.1.15,2013-12-03 20:41:00,
2013-12-03 15:46:00,77.2,65.4,29.95,SSE,163,3.0,5.0,67,0.00,,,0.00,Wunderground v.1.15,2013-12-03 20:46:00,
2013-12-03 15:51:00,77.1,64.9,29.95,SSE,161,4.0,5.0,66,0.00,,,0.00,Wunderground v.1.15,2013-12-03 20:51:00,
2013-12-03 15:57:00,77.0,65.6,29.94,SSW,202,2.0,6.0,68,0.00,,,0.00,Wunderground v.1.15,2013-12-03 20:57:00,
2013-12-03 16:02:00,76.7,65.8,29.94,SE,146,3.0,5.0,69,0.00,,,0.00,Wunderground v.1.15,2013-12-03 21:02:00,
2013-12-03 16:07:00,76.4,65.1,29.94,ESE,121,0.0,6.0,68,0.00,,,0.00,Wunderground v.1.15,2013-12-03 21:07:00,
2013-12-03 16:12:00,76.3,65.4,29.95,ESE,121,0.0,2.0,69,0.00,,,0.00,Wunderground v.1.15,2013-12-03 21:12:00,
2013-12-03 16:17:00,76.1,65.6,29.95,East,101,0.0,3.0,70,0.00,,,0.00,Wunderground v.1.15,2013-12-03 21:17:00,
2013-12-03 16:22:00,76.2,66.1,29.94,South,183,1.0,1.0,71,0.00,,,0.00,Wunderground v.1.15,2013-12-03 21:22:00,
2013-12-03 16:27:00,76.4,65.5,29.94,ESE,117,1.0,6.0,69,0.00,,,0.00,Wunderground v.1.15,2013-12-03 21:27:00,
2013-12-03 16:32:00,76.3,65.4,29.94,SSE,160,3.0,9.0,69,0.00,,,0.00,Wunderground v.1.15,2013-12-03 21:32:00,
2013-12-03 16:37:00,76.2,65.7,29.94,SE,135,4.0,9.0,70,0.00,,,0.00,Wunderground v.1.15,2013-12-03 21:37:00,
2013-12-03 16:42:00,76.0,65.5,29.94,South,171,3.0,5.0,70,0.00,,,0.00,Wunderground v.1.15,2013-12-03 21:42:00,
2013-12-03 16:47:00,75.8,65.7,29.94,SE,137,0.0,5.0,71,0.00,,,0.00,Wunderground v.1.15,2013-12-03 21:47:00,
2013-12-03 16:52:00,75.7,65.6,29.94,South,175,0.0,2.0,71,0.00,,,0.00,Wunderground v.1.15,2013-12-03 21:52:00,
2013-12-03 16:57:00,75.5,65.8,29.94,SE,142,0.0,3.0,72,0.00,,,0.00,Wunderground v.1.15,2013-12-03 21:57:00,
2013-12-03 17:02:00,75.4,65.7,29.94,SE,135,1.0,2.0,72,0.00,,,0.00,Wunderground v.1.15,2013-12-03 22:02:00,
2013-12-03 17:07:00,75.3,65.6,29.96,SE,133,0.0,2.0,72,0.00,,,0.00,Wunderground v.1.15,2013-12-03 22:07:00,
2013-12-03 17:12:00,75.3,66.0,29.96,SSE,150,0.0,0.0,73,0.00,,,0.00,Wunderground v.1.15,2013-12-03 22:12:00,
2013-12-03 17:17:00,75.1,65.9,29.96,SSE,165,0.0,1.0,73,0.00,,,0.00,Wunderground v.1.15,2013-12-03 22:17:00,
2013-12-03 17:22:00,75.0,66.1,29.96,SE,134,0.0,1.0,74,0.00,,,0.00,Wunderground v.1.15,2013-12-03 22:22:00,
2013-12-03 17:27:00,74.9,66.1,29.96,SSW,198,0.0,1.0,74,0.00,,,0.00,Wunderground v.1.15,2013-12-03 22:27:00,
2013-12-03 17:32:00,74.8,66.0,29.96,ESE,121,0.0,2.0,74,0.00,,,0.00,Wunderground v.1.15,2013-12-03 22:32:00,
2013-12-03 17:37:00,74.7,65.9,29.96,ESE,121,0.0,2.0,74,0.00,,,0.00,Wunderground v.1.15,2013-12-03 22:37:00,
2013-12-03 17:42:00,74.6,65.8,29.96,South,188,1.0,1.0,74,0.00,,,0.00,Wunderground v.1.15,2013-12-03 22:42:00,
2013-12-03 17:47:00,74.7,66.2,29.96,SSE,149,0.0,3.0,75,0.00,,,0.00,Wunderground v.1.15,2013-12-03 22:47:00,
2013-12-03 17:52:00,74.6,66.1,29.96,SSE,153,0.0,2.0,75,0.00,,,0.00,Wunderground v.1.15,2013-12-03 22:52:00,
2013-12-03 17:57:00,74.6,66.1,29.96,SE,146,1.0,2.0,75,0.00,,,0.00,Wunderground v.1.15,2013-12-03 22:57:00,
2013-12-03 18:02:00,74.6,66.1,29.96,SE,129,0.0,2.0,75,0.00,,,0.00,Wunderground v.1.15,2013-12-03 23:02:00,
2013-12-03 18:07:00,74.6,66.5,29.96,SSE,156,0.0,2.0,76,0.00,,,0.00,Wunderground v.1.15,2013-12-03 23:07:00,
2013-12-03 18:12:00,74.6,66.5,29.96,SE,141,0.0,1.0,76,0.00,,,0.00,Wunderground v.1.15,2013-12-03 23:12:00,
2013-12-03 18:18:00,74.5,66.1,29.96,SE,137,0.0,2.0,75,0.00,,,0.00,Wunderground v.1.15,2013-12-03 23:18:00,
2013-12-03 18:23:00,74.5,66.1,29.97,SE,145,0.0,1.0,75,0.00,,,0.00,Wunderground v.1.15,2013-12-03 23:23:00,
2013-12-03 18:28:00,74.6,66.5,29.97,SSE,150,0.0,2.0,76,0.00,,,0.00,Wunderground v.1.15,2013-12-03 23:28:00,
2013-12-03 18:33:00,74.4,66.3,29.97,SSE,150,0.0,0.0,76,0.00,,,0.00,Wunderground v.1.15,2013-12-03 23:33:00,
2013-12-03 18:38:00,74.2,66.1,29.98,SE,137,0.0,1.0,76,0.00,,,0.00,Wunderground v.1.15,2013-12-03 23:38:00,
2013-12-03 18:43:00,74.0,66.0,29.98,SE,140,0.0,0.0,76,0.00,,,0.00,Wunderground v.1.15,2013-12-03 23:43:00,
2013-12-03 18:48:00,73.8,65.8,29.98,SE,138,0.0,0.0,76,0.00,,,0.00,Wunderground v.1.15,2013-12-03 23:48:00,
2013-12-03 18:53:00,73.7,66.0,29.98,SE,138,0.0,0.0,77,0.00,,,0.00,Wunderground v.1.15,2013-12-03 23:53:00,
2013-12-03 18:58:00,73.4,65.7,29.98,SE,138,0.0,1.0,77,0.00,,,0.00,Wunderground v.1.15,2013-12-03 23:58:00,
2013-12-03 19:03:00,73.2,65.9,29.98,South,171,0.0,0.0,78,0.00,,,0.00,Wunderground v.1.15,2013-12-04 00:03:00,
2013-12-03 19:08:00,72.9,65.6,29.99,South,170,0.0,0.0,78,0.00,,,0.00,Wunderground v.1.15,2013-12-04 00:08:00,
2013-12-03 19:13:00,72.7,65.8,29.99,South,171,0.0,0.0,79,0.00,,,0.00,Wunderground v.1.15,2013-12-04 00:13:00,
2013-12-03 19:18:00,72.6,65.7,29.99,South,171,0.0,0.0,79,0.00,,,0.00,Wunderground v.1.15,2013-12-04 00:18:00,
2013-12-03 19:23:00,72.7,66.2,29.99,South,171,0.0,0.0,80,0.00,,,0.00,Wunderground v.1.15,2013-12-04 00:23:00,
2013-12-03 19:28:00,72.7,66.2,29.99,SSE,164,0.0,0.0,80,0.00,,,0.00,Wunderground v.1.15,2013-12-04 00:28:00,
2013-12-03 19:33:00,72.8,65.9,29.99,South,184,0.0,1.0,79,0.00,,,0.00,Wunderground v.1.15,2013-12-04 00:33:00,
2013-12-03 19:38:00,73.1,66.6,29.99,SSE,159,0.0,1.0,80,0.00,,,0.00,Wunderground v.1.15,2013-12-04 00:38:00,
2013-12-03 19:43:00,73.3,66.4,29.99,SE,146,0.0,1.0,79,0.00,,,0.00,Wunderground v.1.15,2013-12-04 00:43:00,
2013-12-03 19:48:00,73.2,65.9,29.99,SSE,147,0.0,1.0,78,0.00,,,0.00,Wunderground v.1.15,2013-12-04 00:48:00,
2013-12-03 19:53:00,73.2,66.3,30.00,SSE,147,0.0,0.0,79,0.00,,,0.00,Wunderground v.1.15,2013-12-04 00:53:00,
2013-12-03 19:58:00,72.9,66.4,30.00,SE,146,0.0,0.0,80,0.00,,,0.00,Wunderground v.1.15,2013-12-04 00:58:00,
2013-12-03 20:03:00,72.6,66.1,30.00,SE,146,0.0,0.0,80,0.00,,,0.00,Wunderground v.1.15,2013-12-04 01:03:00,
2013-12-03 20:08:00,72.1,65.6,30.01,SSE,147,0.0,0.0,80,0.00,,,0.00,Wunderground v.1.15,2013-12-04 01:08:00,
2013-12-03 20:13:00,71.8,65.7,30.01,SE,146,0.0,0.0,81,0.00,,,0.00,Wunderground v.1.15,2013-12-04 01:13:00,
2013-12-03 20:18:00,71.4,65.6,30.01,SSE,147,0.0,0.0,82,0.00,,,0.00,Wunderground v.1.15,2013-12-04 01:18:00,
2013-12-03 20:23:00,71.2,65.8,30.01,SE,146,0.0,0.0,83,0.00,,,0.00,Wunderground v.1.15,2013-12-04 01:23:00,
2013-12-03 20:28:00,71.1,66.0,30.01,SSE,147,0.0,0.0,84,0.00,,,0.00,Wunderground v.1.15,2013-12-04 01:28:00,
2013-12-03 20:33:00,70.7,65.6,30.01,SSE,147,0.0,0.0,84,0.00,,,0.00,Wunderground v.1.15,2013-12-04 01:33:00,
2013-12-03 20:38:00,70.3,65.2,30.01,SSE,147,0.0,0.0,84,0.00,,,0.00,Wunderground v.1.15,2013-12-04 01:38:00,
2013-12-03 20:43:00,70.1,65.7,30.01,SSE,147,0.0,0.0,86,0.00,,,0.00,Wunderground v.1.15,2013-12-04 01:43:00,
2013-12-03 20:48:00,69.7,65.3,30.01,SSE,147,0.0,0.0,86,0.00,,,0.00,Wunderground v.1.15,2013-12-04 01:48:00,
2013-12-03 20:53:00,69.4,65.0,30.02,SSE,147,0.0,0.0,86,0.00,,,0.00,Wunderground v.1.15,2013-12-04 01:53:00,
2013-12-03 20:58:00,69.3,65.3,30.02,SSE,147,0.0,0.0,87,0.00,,,0.00,Wunderground v.1.15,2013-12-04 01:58:00,
2013-12-03 21:03:00,69.1,65.4,30.02,SSE,147,0.0,0.0,88,0.00,,,0.00,Wunderground v.1.15,2013-12-04 02:03:00,
2013-12-03 21:08:00,68.9,65.2,30.02,SE,146,0.0,0.0,88,0.00,,,0.00,Wunderground v.1.15,2013-12-04 02:08:00,
2013-12-03 21:14:00,68.8,65.1,30.02,SE,146,0.0,0.0,88,0.00,,,0.00,Wunderground v.1.15,2013-12-04 02:14:00,
2013-12-03 21:19:00,68.8,65.4,30.02,SE,146,0.0,0.0,89,0.00,,,0.00,Wunderground v.1.15,2013-12-04 02:19:00,
2013-12-03 21:24:00,68.6,65.2,30.02,SE,146,0.0,0.0,89,0.00,,,0.00,Wunderground v.1.15,2013-12-04 02:24:00,
2013-12-03 21:29:00,68.5,65.4,30.02,SE,146,0.0,0.0,90,0.00,,,0.00,Wunderground v.1.15,2013-12-04 02:29:00,
2013-12-03 21:34:00,68.4,65.4,30.02,SSE,147,0.0,0.0,90,0.00,,,0.00,Wunderground v.1.15,2013-12-04 02:34:00,
2013-12-03 21:39:00,68.6,65.9,30.02,SSE,147,0.0,0.0,91,0.00,,,0.00,Wunderground v.1.15,2013-12-04 02:39:00,
2013-12-03 21:44:00,68.9,66.2,30.02,SSE,149,0.0,0.0,91,0.00,,,0.00,Wunderground v.1.15,2013-12-04 02:44:00,
2013-12-03 21:49:00,69.3,66.2,30.02,South,178,0.0,1.0,90,0.00,,,0.00,Wunderground v.1.15,2013-12-04 02:49:00,
2013-12-03 21:54:00,69.7,66.6,30.02,SSW,192,0.0,2.0,90,0.00,,,0.00,Wunderground v.1.15,2013-12-04 02:54:00,
2013-12-03 21:59:00,70.1,66.7,30.02,SSW,207,0.0,2.0,89,0.00,,,0.00,Wunderground v.1.15,2013-12-04 02:59:00,
2013-12-03 22:04:00,70.3,66.9,30.02,SSE,153,0.0,1.0,89,0.00,,,0.00,Wunderground v.1.15,2013-12-04 03:04:00,
2013-12-03 22:09:00,70.4,67.0,30.02,SSE,156,0.0,1.0,89,0.00,,,0.00,Wunderground v.1.15,2013-12-04 03:09:00,
2013-12-03 22:14:00,70.5,66.8,30.02,SSW,198,0.0,1.0,88,0.00,,,0.00,Wunderground v.1.15,2013-12-04 03:14:00,
2013-12-03 22:19:00,70.5,66.8,30.02,South,172,1.0,1.0,88,0.00,,,0.00,Wunderground v.1.15,2013-12-04 03:19:00,
2013-12-03 22:24:00,70.6,66.9,30.02,South,180,0.0,1.0,88,0.00,,,0.00,Wunderground v.1.15,2013-12-04 03:24:00,
2013-12-03 22:29:00,70.6,66.9,30.02,SSW,198,0.0,1.0,88,0.00,,,0.00,Wunderground v.1.15,2013-12-04 03:29:00,
2013-12-03 22:34:00,70.7,67.0,30.02,SSE,167,0.0,1.0,88,0.00,,,0.00,Wunderground v.1.15,2013-12-04 03:34:00,
2013-12-03 22:39:00,70.7,67.0,30.02,South,190,0.0,1.0,88,0.00,,,0.00,Wunderground v.1.15,2013-12-04 03:39:00,
2013-12-03 22:44:00,70.6,66.9,30.02,SSW,195,0.0,1.0,88,0.00,,,0.00,Wunderground v.1.15,2013-12-04 03:44:00,
2013-12-03 22:49:00,70.7,67.0,30.02,South,191,0.0,2.0,88,0.00,,,0.00,Wunderground v.1.15,2013-12-04 03:49:00,
2013-12-03 22:54:00,70.7,67.0,30.02,SSE,165,0.0,1.0,88,0.00,,,0.00,Wunderground v.1.15,2013-12-04 03:54:00,
2013-12-03 22:59:00,70.7,66.6,30.02,South,178,1.0,1.0,87,0.00,,,0.00,Wunderground v.1.15,2013-12-04 03:59:00,
2013-12-03 23:04:00,70.6,66.9,30.02,SSW,195,1.0,1.0,88,0.00,,,0.00,Wunderground v.1.15,2013-12-04 04:04:00,
2013-12-03 23:09:00,70.7,67.0,30.02,South,190,1.0,2.0,88,0.00,,,0.00,Wunderground v.1.15,2013-12-04 04:09:00,
2013-12-03 23:14:00,70.9,66.8,30.02,South,188,0.0,2.0,87,0.00,,,0.00,Wunderground v.1.15,2013-12-04 04:14:00,
2013-12-03 23:20:00,70.9,66.8,30.02,SSW,203,0.0,0.0,87,0.00,,,0.00,Wunderground v.1.15,2013-12-04 04:20:00,
2013-12-03 23:25:00,70.9,66.8,30.02,SSW,205,0.0,1.0,87,0.00,,,0.00,Wunderground v.1.15,2013-12-04 04:25:00,
2013-12-03 23:30:00,70.8,66.7,30.02,South,188,0.0,0.0,87,0.00,,,0.00,Wunderground v.1.15,2013-12-04 04:30:00,
2013-12-03 23:35:00,70.9,67.2,30.02,SE,138,0.0,1.0,88,0.00,,,0.00,Wunderground v.1.15,2013-12-04 04:35:00,
2013-12-03 23:40:00,71.0,67.3,30.02,SE,142,2.0,2.0,88,0.00,,,0.00,Wunderground v.1.15,2013-12-04 04:40:00,
2013-12-03 23:45:00,71.1,67.0,30.02,SSE,156,2.0,3.0,87,0.00,,,0.00,Wunderground v.1.15,2013-12-04 04:45:00,
2013-12-03 23:50:00,71.1,67.0,30.02,SE,134,1.0,2.0,87,0.00,,,0.00,Wunderground v.1.15,2013-12-04 04:50:00,
2013-12-03 23:55:00,71.1,67.0,30.02,SSE,153,0.0,2.0,87,0.00,,,0.00,Wunderground v.1.15,2013-12-04 04:55:00,